Flag Weather past 2 weeks in Addis Ababa, Ethiopia

Now
63 °F

Partly sunny.


Feels Like: 63 °F
Forecast: 46 / 72 °F
Wind: 7 mph from East

Location: Addis Ababa Airport

Current Time: Nov 26, 2014 at 12:29:10 PM

Latest Report: Nov 26, 2014 at 9:00 AM


Visibility: N/A

Pressure: 30.36 "Hg

Humidity: 68%

Dew point: 52 °F

Location of Addis AbabaLocation

Historic Weather in Addis Ababa — Graph

°F

Addis Ababa temperature yesterday

Maximum temperature yesterday: 73 °F (at 3:00 PM)
Minimum temperature yesterday: 57 °F (at 5:00 AM)
Average temperature yesterday: 65 °F

Past Weeks' High & Low Weather Summary

 TemperatureHumidityPressure
High75 °F (Nov 13, 3:00 PM)83% (Nov 15, 12:00 AM)30.45 "Hg (Nov 15, 12:00 AM)
Low50 °F (Nov 20, 6:00 AM)38% (Nov 17, 3:00 PM)30.18 "Hg (Nov 13, 3:00 PM)
Average63 °F58%30.32 "Hg
* Reported Nov 11 10:00 AM — Nov 26 9:00 AM, Addis Ababa, Weather by CustomWeather, © 2014

Note: Actual official high and low records may vary slightly from our data, if they occured in-between our weather recording intervals... More about our weather records

Advertising

Addis Ababa weather history for previous 24 hours

 ConditionsComfort  
Time TempWeatherWind HumidityBarometerVisibility
9:00 AM
Nov 26
63 °FPartly sunny.7 mph68%30.36 "HgN/A
8:00 AM61 °FBroken clouds.2 mph72%30.36 "HgN/A
7:00 AM57 °FBroken clouds.5 mph82%30.33 "HgN/A
6:00 AM57 °FPartly cloudy.No wind82%30.30 "HgN/A
5:00 AM59 °FPassing clouds.5 mph72%30.30 "HgN/A
4:00 AM59 °FPassing clouds.7 mph72%30.27 "HgN/A
3:00 AM59 °FPassing clouds.7 mph72%30.27 "HgN/A
2:00 AM59 °FPassing clouds.7 mph72%30.30 "HgN/A
1:00 AM59 °FPassing clouds.9 mph72%30.30 "HgN/A
12:00 AM59 °FPassing clouds.7 mph72%30.30 "HgN/A
11:00 PM
Nov 25
63 °FPassing clouds.5 mph68%30.30 "HgN/A
10:00 PM63 °FPassing clouds.9 mph68%30.33 "HgN/A
9:00 PM63 °FPassing clouds.9 mph68%30.33 "HgN/A
8:00 PM64 °FPassing clouds.9 mph60%30.30 "HgN/A
7:00 PM66 °FPassing clouds.9 mph60%30.27 "HgN/A
6:00 PM70 °FScattered clouds.9 mph46%30.24 "HgN/A
5:00 PM72 °FScattered clouds.14 mph38%30.24 "HgN/A
4:00 PM73 °FPassing clouds.2 mph50%30.24 "HgN/A
3:00 PM73 °FPartly sunny.12 mph47%30.24 "HgN/A
2:00 PM72 °FPartly sunny.14 mph50%30.24 "HgN/A
1:00 PM70 °FPartly sunny.12 mph46%30.27 "HgN/A
12:00 PM72 °FPartly sunny.12 mph44%30.30 "HgN/A
Weather by CustomWeather, © 2014

See weather overviewHow to use our weather pages